SUCAR HECA-HE27

Flight info

Callsign SUCAR
Flight time N/A
Altitude 8000
Route CVO M720 TAKRI DCT
Aircraft C208/L-VGDW/C

Departure

Time 2026-05-07 14:18
Airport Cairo International Airport (HECA)

Arrival

Time N/A
Airport HE27
Time Latitude Longitude Altitude Speed Heading
2026-05-07 13:58 30.12872 31.40646 373 ft 0 kts 252°
2026-05-07 14:08 30.12871 31.40643 368 ft 2 kts 251°
2026-05-07 14:08 30.12863 31.40613 373 ft 5 kts 255°
2026-05-07 14:08 30.12869 31.40573 373 ft 5 kts 329°
2026-05-07 14:09 30.12891 31.40569 373 ft 2 kts 11°
2026-05-07 14:09 30.12902 31.40575 373 ft 3 kts 36°
2026-05-07 14:09 30.12917 31.40610 373 ft 7 kts 74°
2026-05-07 14:09 30.12932 31.40669 373 ft 8 kts 71°
2026-05-07 14:10 30.12974 31.40699 373 ft 8 kts 348°
2026-05-07 14:10 30.13034 31.40680 373 ft 10 kts 343°
2026-05-07 14:10 30.13108 31.40654 373 ft 12 kts 341°
2026-05-07 14:10 30.13173 31.40578 373 ft 16 kts 297°
2026-05-07 14:11 30.13224 31.40447 373 ft 20 kts 288°
2026-05-07 14:11 30.13262 31.40280 373 ft 23 kts 291°
2026-05-07 14:11 30.13267 31.40095 373 ft 25 kts 240°
2026-05-07 14:11 30.13155 31.39937 373 ft 25 kts 229°
2026-05-07 14:12 30.13048 31.39793 373 ft 23 kts 229°
2026-05-07 14:12 30.12947 31.39660 373 ft 21 kts 228°
2026-05-07 14:12 30.12855 31.39533 373 ft 20 kts 229°
2026-05-07 14:12 30.12766 31.39414 373 ft 19 kts 231°
2026-05-07 14:13 30.12681 31.39300 373 ft 19 kts 228°
2026-05-07 14:13 30.12597 31.39187 373 ft 18 kts 229°
2026-05-07 14:13 30.12506 31.39066 373 ft 23 kts 229°
2026-05-07 14:13 30.12390 31.38910 373 ft 28 kts 230°
2026-05-07 14:14 30.12269 31.38749 373 ft 25 kts 228°
2026-05-07 14:14 30.12159 31.38600 373 ft 23 kts 232°
2026-05-07 14:14 30.12185 31.38461 373 ft 18 kts 319°
2026-05-07 14:14 30.12265 31.38427 374 ft 10 kts 35°
2026-05-07 14:15 30.12289 31.38457 373 ft 0 kts 50°
2026-05-07 14:17 30.12303 31.38475 373 ft 8 kts 49°
2026-05-07 14:17 30.12407 31.38617 371 ft 43 kts 50°
2026-05-07 14:17 30.12685 31.38992 378 ft 76 kts 47°
2026-05-07 14:17 30.13049 31.39482 495 ft 83 kts 41°
2026-05-07 14:18 30.13436 31.39941 726 ft 76 kts 38°
2026-05-07 14:18 30.13817 31.40394 839 ft 81 kts 38°
2026-05-07 14:18 30.14300 31.40602 1019 ft 83 kts 348°
2026-05-07 14:18 30.14735 31.40108 1202 ft 103 kts 293°
2026-05-07 14:19 30.14599 31.39285 1433 ft 116 kts 235°
2026-05-07 14:19 30.13978 31.38598 1508 ft 131 kts 224°
2026-05-07 14:19 30.13307 31.37896 1765 ft 129 kts 222°
2026-05-07 14:19 30.12646 31.37214 2007 ft 130 kts 224°
2026-05-07 14:20 30.11980 31.36493 2212 ft 132 kts 224°
2026-05-07 14:20 30.11553 31.35982 2342 ft 130 kts 236°
2026-05-07 14:20 30.10810 31.34908 2612 ft 129 kts 234°
2026-05-07 14:20 30.10229 31.34107 2816 ft 131 kts 233°
2026-05-07 14:21 30.09639 31.33301 3014 ft 132 kts 233°
2026-05-07 14:21 30.09044 31.32485 3221 ft 133 kts 232°
2026-05-07 14:21 30.08644 31.31942 3353 ft 135 kts 233°
2026-05-07 14:21 30.08034 31.31111 3553 ft 136 kts 234°
2026-05-07 14:22 30.07217 31.29999 3816 ft 136 kts 232°
2026-05-07 14:22 30.06809 31.29445 3947 ft 137 kts 233°
2026-05-07 14:22 30.06183 31.28592 4151 ft 140 kts 233°
2026-05-07 14:22 30.05547 31.27731 4347 ft 141 kts 233°
2026-05-07 14:23 30.04911 31.26865 4557 ft 141 kts 232°
2026-05-07 14:23 30.04272 31.25998 4758 ft 142 kts 232°
2026-05-07 14:23 30.03637 31.25134 4957 ft 143 kts 233°
2026-05-07 14:23 30.02993 31.24260 5154 ft 143 kts 234°
2026-05-07 14:24 30.02351 31.23390 5353 ft 142 kts 234°
2026-05-07 14:24 30.01705 31.22517 5555 ft 144 kts 234°
2026-05-07 14:24 30.01067 31.21628 5754 ft 143 kts 235°
2026-05-07 14:24 30.00429 31.20753 5955 ft 141 kts 235°
2026-05-07 14:25 29.99790 31.19893 6154 ft 141 kts 233°
2026-05-07 14:25 29.99155 31.19035 6358 ft 140 kts 234°
2026-05-07 14:25 29.98528 31.18181 6548 ft 139 kts 234°
2026-05-07 14:25 29.97899 31.17335 6733 ft 138 kts 234°
2026-05-07 14:26 29.97277 31.16495 6912 ft 137 kts 235°
2026-05-07 14:26 29.96664 31.15663 7102 ft 135 kts 235°
2026-05-07 14:26 29.96055 31.14840 7291 ft 135 kts 235°
2026-05-07 14:26 29.95457 31.14033 7473 ft 133 kts 235°
2026-05-07 14:27 29.94861 31.13220 7662 ft 132 kts 235°
2026-05-07 14:27 29.94268 31.12416 7851 ft 131 kts 234°
2026-05-07 14:27 29.93677 31.11623 7999 ft 134 kts 235°
2026-05-07 14:27 29.93047 31.10759 8012 ft 146 kts 236°
2026-05-07 14:28 29.92370 31.09834 8019 ft 155 kts 235°
2026-05-07 14:28 29.91651 31.08861 8016 ft 162 kts 234°
2026-05-07 14:28 29.90904 31.07856 8012 ft 166 kts 234°
2026-05-07 14:28 29.90152 31.06831 8015 ft 168 kts 234°
2026-05-07 14:29 29.89393 31.05810 8012 ft 170 kts 234°
2026-05-07 14:29 29.88620 31.04767 8012 ft 171 kts 234°
2026-05-07 14:29 29.87847 31.03721 8010 ft 172 kts 234°
2026-05-07 14:29 29.87067 31.02664 8010 ft 173 kts 233°
2026-05-07 14:30 29.86281 31.01609 8011 ft 174 kts 233°
2026-05-07 14:30 29.85491 31.00541 8012 ft 175 kts 234°
2026-05-07 14:30 29.84700 30.99472 8012 ft 175 kts 234°
2026-05-07 14:30 29.83906 30.98403 8014 ft 176 kts 234°
2026-05-07 14:31 29.83111 30.97334 8016 ft 176 kts 233°
2026-05-07 14:31 29.82315 30.96261 8017 ft 177 kts 234°
2026-05-07 14:31 29.81514 30.95181 8013 ft 178 kts 233°
2026-05-07 14:31 29.80720 30.94111 8017 ft 178 kts 233°
2026-05-07 14:32 29.79916 30.93028 8012 ft 178 kts 234°
2026-05-07 14:32 29.79111 30.91945 8014 ft 178 kts 234°
2026-05-07 14:32 29.78305 30.90861 8013 ft 178 kts 233°
2026-05-07 14:32 29.77505 30.89781 8013 ft 178 kts 233°
2026-05-07 14:33 29.76701 30.88700 8014 ft 177 kts 234°
2026-05-07 14:33 29.75900 30.87621 8012 ft 177 kts 233°
2026-05-07 14:33 29.75098 30.86546 8015 ft 177 kts 233°
2026-05-07 14:33 29.74296 30.85465 8014 ft 177 kts 234°
2026-05-07 14:34 29.73495 30.84388 8015 ft 177 kts 233°
2026-05-07 14:34 29.72693 30.83313 8014 ft 177 kts 234°
2026-05-07 14:34 29.71889 30.82235 8010 ft 177 kts 233°
2026-05-07 14:34 29.71093 30.81165 8012 ft 176 kts 233°
2026-05-07 14:35 29.70293 30.80090 8013 ft 177 kts 233°
2026-05-07 14:35 29.69500 30.79024 8010 ft 178 kts 233°
2026-05-07 14:35 29.68694 30.77941 8007 ft 178 kts 233°
2026-05-07 14:35 29.67888 30.76862 8010 ft 178 kts 233°
2026-05-07 14:36 29.67079 30.75775 8011 ft 178 kts 233°
2026-05-07 14:36 29.66267 30.74689 8010 ft 179 kts 233°
2026-05-07 14:36 29.65458 30.73604 8009 ft 178 kts 233°
2026-05-07 14:36 29.64648 30.72518 8011 ft 178 kts 233°
2026-05-07 14:37 29.63841 30.71436 8010 ft 178 kts 233°
2026-05-07 14:37 29.62221 30.69267 8010 ft 179 kts 233°
2026-05-07 14:37 29.61421 30.68200 8014 ft 178 kts 232°
2026-05-07 14:38 29.60612 30.67117 8007 ft 178 kts 232°
2026-05-07 14:38 29.59813 30.66043 8011 ft 176 kts 233°
2026-05-07 14:38 29.59012 30.64971 8010 ft 176 kts 233°
2026-05-07 14:38 29.58213 30.63907 8011 ft 176 kts 233°
2026-05-07 14:39 29.57414 30.62832 8010 ft 177 kts 233°
2026-05-07 14:39 29.56612 30.61764 8012 ft 177 kts 233°
2026-05-07 14:39 29.55804 30.60687 8009 ft 178 kts 233°
2026-05-07 14:39 29.54999 30.59610 8010 ft 178 kts 233°
2026-05-07 14:40 29.54190 30.58533 8005 ft 178 kts 233°
2026-05-07 14:40 29.53384 30.57455 8009 ft 178 kts 233°
2026-05-07 14:40 29.52576 30.56375 8007 ft 178 kts 233°
2026-05-07 14:40 29.51767 30.55297 8008 ft 178 kts 233°
2026-05-07 14:41 29.50959 30.54219 8008 ft 178 kts 233°
2026-05-07 14:41 29.50161 30.53155 8008 ft 178 kts 233°
2026-05-07 14:41 29.49352 30.52077 8009 ft 178 kts 233°
2026-05-07 14:41 29.48542 30.50994 8007 ft 179 kts 233°
2026-05-07 14:42 29.47730 30.49915 8010 ft 179 kts 232°
2026-05-07 14:42 29.46919 30.48834 8009 ft 179 kts 233°
2026-05-07 14:42 29.46111 30.47757 8008 ft 178 kts 233°
2026-05-07 14:42 29.45303 30.46678 8011 ft 178 kts 233°
2026-05-07 14:43 29.44490 30.45600 8008 ft 178 kts 233°
2026-05-07 14:43 29.43679 30.44522 8009 ft 178 kts 233°
2026-05-07 14:43 29.42866 30.43451 8014 ft 179 kts 232°
2026-05-07 14:43 29.42048 30.42368 8009 ft 180 kts 233°
2026-05-07 14:44 29.41241 30.41274 8006 ft 179 kts 233°
2026-05-07 14:44 29.40434 30.40199 8010 ft 179 kts 233°
2026-05-07 14:44 29.39872 30.38963 8004 ft 172 kts 262°
2026-05-07 14:44 29.39790 30.37624 8011 ft 167 kts 278°
2026-05-07 14:45 29.39821 30.36289 8009 ft 167 kts 276°
2026-05-07 14:45 29.39839 30.34961 8011 ft 167 kts 276°
2026-05-07 14:45 29.39866 30.33649 8011 ft 167 kts 277°
2026-05-07 14:45 29.39892 30.32316 8014 ft 167 kts 276°
2026-05-07 14:46 29.39919 30.30977 8014 ft 167 kts 276°
2026-05-07 14:46 29.39948 30.29643 8008 ft 167 kts 276°
2026-05-07 14:46 29.39970 30.28314 8011 ft 167 kts 276°
2026-05-07 14:46 29.39997 30.26985 8012 ft 167 kts 276°
2026-05-07 14:47 29.40023 30.25653 8010 ft 167 kts 277°
2026-05-07 14:47 29.40050 30.24313 8012 ft 168 kts 277°
2026-05-07 14:47 29.40074 30.22973 8012 ft 168 kts 276°
2026-05-07 14:47 29.40099 30.21633 8014 ft 168 kts 276°
2026-05-07 14:48 29.40125 30.20303 8015 ft 168 kts 276°
2026-05-07 14:48 29.40150 30.18959 8014 ft 169 kts 275°
2026-05-07 14:48 29.40175 30.17611 8015 ft 169 kts 276°
2026-05-07 14:48 29.40198 30.16263 8016 ft 169 kts 277°
2026-05-07 14:49 29.40224 30.14910 8014 ft 170 kts 276°
2026-05-07 14:49 29.40251 30.13555 8016 ft 170 kts 276°
2026-05-07 14:49 29.40271 30.12203 8013 ft 169 kts 276°
2026-05-07 14:49 29.40294 30.10851 8013 ft 169 kts 276°
2026-05-07 14:50 29.40322 30.09503 8014 ft 169 kts 276°
2026-05-07 14:50 29.40348 30.08151 8015 ft 169 kts 276°
2026-05-07 14:50 29.40368 30.06817 8014 ft 169 kts 276°
2026-05-07 14:50 29.40392 30.05469 8014 ft 169 kts 276°
2026-05-07 14:51 29.40416 30.04125 8015 ft 168 kts 276°
2026-05-07 14:51 29.40440 30.02782 8014 ft 169 kts 276°
2026-05-07 14:51 29.40462 30.01435 8015 ft 168 kts 276°
2026-05-07 14:51 29.40487 30.00098 8010 ft 167 kts 276°
2026-05-07 14:52 29.40510 29.98762 8015 ft 168 kts 276°
2026-05-07 14:52 29.40532 29.97422 8013 ft 168 kts 276°
2026-05-07 14:52 29.40551 29.96083 8013 ft 168 kts 276°
2026-05-07 14:52 29.40579 29.94742 8016 ft 168 kts 276°
2026-05-07 14:53 29.40598 29.93417 8017 ft 169 kts 276°
2026-05-07 14:53 29.40621 29.92077 8015 ft 168 kts 276°
2026-05-07 14:53 29.40646 29.90730 8019 ft 169 kts 275°
2026-05-07 14:53 29.40666 29.89383 8017 ft 169 kts 276°
2026-05-07 14:54 29.40689 29.88032 8018 ft 169 kts 276°
2026-05-07 14:54 29.40709 29.86681 8016 ft 170 kts 277°
2026-05-07 14:54 29.40729 29.85330 8018 ft 169 kts 276°
2026-05-07 14:54 29.40751 29.83983 8020 ft 169 kts 277°
2026-05-07 14:55 29.40776 29.82629 8018 ft 169 kts 276°
2026-05-07 14:55 29.40796 29.81281 8017 ft 169 kts 276°
2026-05-07 14:55 29.40818 29.79928 8019 ft 170 kts 276°
2026-05-07 14:55 29.40839 29.78577 8016 ft 169 kts 277°
2026-05-07 14:56 29.40859 29.77249 8015 ft 168 kts 275°
2026-05-07 14:56 29.40879 29.75906 8020 ft 168 kts 276°
2026-05-07 14:56 29.40901 29.74563 8018 ft 168 kts 275°
2026-05-07 14:56 29.40921 29.73222 8020 ft 168 kts 277°
2026-05-07 14:57 29.40943 29.71878 8023 ft 168 kts 275°
2026-05-07 14:57 29.40959 29.70537 8020 ft 168 kts 276°
2026-05-07 14:57 29.40982 29.69198 8022 ft 168 kts 276°
2026-05-07 14:57 29.41002 29.67862 8022 ft 168 kts 276°
2026-05-07 14:58 29.41021 29.66525 8019 ft 167 kts 275°
2026-05-07 14:58 29.41041 29.65195 8017 ft 167 kts 276°
2026-05-07 14:58 29.41060 29.63874 8017 ft 167 kts 276°
2026-05-07 14:58 29.41078 29.62544 8018 ft 167 kts 276°
2026-05-07 14:59 29.41097 29.61210 8018 ft 167 kts 276°
2026-05-07 14:59 29.41117 29.59873 8023 ft 168 kts 276°
2026-05-07 14:59 29.41133 29.58532 8021 ft 168 kts 276°
2026-05-07 14:59 29.41154 29.57191 8021 ft 168 kts 276°
2026-05-07 15:00 29.41174 29.55846 8017 ft 169 kts 275°
2026-05-07 15:00 29.41192 29.54501 8023 ft 169 kts 276°
2026-05-07 15:00 29.41210 29.53154 8018 ft 169 kts 275°
2026-05-07 15:00 29.41228 29.51801 8017 ft 169 kts 276°
2026-05-07 15:01 29.41246 29.50469 8018 ft 169 kts 276°
2026-05-07 15:01 29.41267 29.49115 8015 ft 170 kts 275°
2026-05-07 15:01 29.41284 29.47758 8016 ft 169 kts 276°
2026-05-07 15:01 29.41303 29.46407 8016 ft 170 kts 275°
2026-05-07 15:02 29.41317 29.45049 8015 ft 171 kts 276°
2026-05-07 15:02 29.41337 29.43688 8020 ft 170 kts 276°
2026-05-07 15:02 29.41353 29.42333 8022 ft 169 kts 275°
2026-05-07 15:02 29.41370 29.41003 8019 ft 169 kts 276°
2026-05-07 15:03 29.41387 29.39650 8017 ft 169 kts 275°
2026-05-07 15:03 29.41406 29.38313 8017 ft 168 kts 276°
2026-05-07 15:03 29.41419 29.36969 8016 ft 168 kts 276°
2026-05-07 15:03 29.41438 29.35631 8015 ft 167 kts 275°
2026-05-07 15:04 29.41455 29.34298 8016 ft 167 kts 275°
2026-05-07 15:04 29.41472 29.32959 8016 ft 168 kts 275°
2026-05-07 15:04 29.41487 29.31623 8019 ft 168 kts 276°
2026-05-07 15:04 29.41503 29.30281 8017 ft 168 kts 275°
2026-05-07 15:05 29.41519 29.28938 8015 ft 168 kts 276°
2026-05-07 15:05 29.41533 29.27597 8020 ft 168 kts 276°
2026-05-07 15:05 29.41551 29.26259 8019 ft 168 kts 275°
2026-05-07 15:05 29.41565 29.24919 8014 ft 167 kts 276°
2026-05-07 15:06 29.41581 29.23597 8015 ft 168 kts 275°
2026-05-07 15:06 29.41596 29.22261 8014 ft 167 kts 276°
2026-05-07 15:06 29.41610 29.20927 8016 ft 168 kts 275°
2026-05-07 15:06 29.41627 29.19591 8011 ft 168 kts 275°
2026-05-07 15:07 29.41640 29.18252 8013 ft 168 kts 275°
2026-05-07 15:07 29.41655 29.16911 8014 ft 168 kts 276°
2026-05-07 15:07 29.41670 29.15570 8014 ft 168 kts 275°
2026-05-07 15:07 29.41685 29.14225 8013 ft 169 kts 275°
2026-05-07 15:08 29.41695 29.13335 8011 ft 169 kts 275°
2026-05-07 15:08 29.41711 29.11990 8013 ft 168 kts 275°
2026-05-07 15:08 29.41724 29.10649 8014 ft 169 kts 275°
2026-05-07 15:08 29.41737 29.09300 8011 ft 168 kts 275°
2026-05-07 15:09 29.41752 29.07964 8014 ft 167 kts 275°
2026-05-07 15:09 29.41818 29.06634 8019 ft 167 kts 279°
2026-05-07 15:09 29.41885 29.05298 8014 ft 168 kts 277°
2026-05-07 15:09 29.41943 29.03963 8018 ft 168 kts 277°
2026-05-07 15:10 29.42013 29.02627 8015 ft 168 kts 278°
2026-05-07 15:10 29.42085 29.01288 8014 ft 168 kts 278°
2026-05-07 15:10 29.42154 28.99955 8015 ft 167 kts 277°
2026-05-07 15:10 29.42222 28.98622 8014 ft 167 kts 278°
2026-05-07 15:11 29.42292 28.97312 8015 ft 167 kts 278°
2026-05-07 15:11 29.42360 28.95983 8014 ft 167 kts 278°
2026-05-07 15:11 29.42428 28.94656 8012 ft 166 kts 278°
2026-05-07 15:11 29.42495 28.93333 8012 ft 166 kts 277°
2026-05-07 15:12 29.42566 28.92006 8009 ft 166 kts 278°
2026-05-07 15:12 29.42633 28.90679 8009 ft 166 kts 278°
2026-05-07 15:12 29.42699 28.89354 8011 ft 167 kts 278°
2026-05-07 15:12 29.42769 28.88024 8012 ft 167 kts 278°
2026-05-07 15:13 29.42836 28.86689 8012 ft 168 kts 278°
2026-05-07 15:13 29.42906 28.85354 8011 ft 168 kts 278°
2026-05-07 15:13 29.42973 28.84014 8013 ft 168 kts 277°
2026-05-07 15:13 29.43039 28.82693 8012 ft 168 kts 278°
2026-05-07 15:14 29.43109 28.81356 8012 ft 168 kts 278°
2026-05-07 15:14 29.43175 28.80021 8014 ft 168 kts 277°
2026-05-07 15:14 29.43242 28.78684 8014 ft 167 kts 278°
2026-05-07 15:14 29.43312 28.77349 8018 ft 168 kts 277°
2026-05-07 15:15 29.43380 28.76005 8017 ft 169 kts 278°
2026-05-07 15:15 29.43448 28.74661 8016 ft 169 kts 277°
2026-05-07 15:15 29.43513 28.73316 8015 ft 168 kts 278°
2026-05-07 15:15 29.43581 28.71978 8016 ft 168 kts 278°
2026-05-07 15:16 29.43647 28.70636 8014 ft 168 kts 278°
2026-05-07 15:16 29.43713 28.69298 8011 ft 168 kts 277°
2026-05-07 15:16 29.43779 28.67982 8013 ft 168 kts 277°
2026-05-07 15:16 29.43845 28.66644 8009 ft 168 kts 277°
2026-05-07 15:17 29.43911 28.65305 8010 ft 167 kts 277°
2026-05-07 15:17 29.43976 28.63972 8014 ft 167 kts 278°
2026-05-07 15:17 29.44042 28.62639 8012 ft 168 kts 277°
2026-05-07 15:17 29.44109 28.61303 8014 ft 167 kts 277°
2026-05-07 15:18 29.44173 28.59973 8014 ft 167 kts 277°
2026-05-07 15:18 29.44239 28.58644 8014 ft 166 kts 278°
2026-05-07 15:18 29.44304 28.57320 8014 ft 167 kts 277°
2026-05-07 15:18 29.44367 28.55985 8013 ft 167 kts 277°
2026-05-07 15:19 29.44432 28.54661 8010 ft 166 kts 278°
2026-05-07 15:19 29.44497 28.53351 8011 ft 167 kts 277°
2026-05-07 15:19 29.44563 28.52020 8012 ft 167 kts 278°
2026-05-07 15:19 29.44626 28.50689 8011 ft 167 kts 277°
2026-05-07 15:20 29.44689 28.49355 8014 ft 167 kts 277°
2026-05-07 15:20 29.44755 28.48023 8014 ft 168 kts 278°
2026-05-07 15:20 29.44820 28.46685 8012 ft 168 kts 277°
2026-05-07 15:20 29.44882 28.45348 8013 ft 168 kts 277°
2026-05-07 15:21 29.44948 28.44009 8015 ft 168 kts 278°
2026-05-07 15:21 29.45014 28.42660 8016 ft 168 kts 277°
2026-05-07 15:21 29.45076 28.41332 8018 ft 169 kts 277°
2026-05-07 15:21 29.45140 28.39986 8018 ft 169 kts 277°
2026-05-07 15:22 29.45204 28.38642 8017 ft 169 kts 277°
2026-05-07 15:22 29.45267 28.37289 8016 ft 170 kts 277°
2026-05-07 15:22 29.45331 28.35940 8016 ft 169 kts 277°
2026-05-07 15:22 29.45395 28.34594 8016 ft 169 kts 277°
2026-05-07 15:23 29.45459 28.33247 8012 ft 169 kts 277°
2026-05-07 15:23 29.45520 28.31904 8012 ft 168 kts 277°
2026-05-07 15:23 29.45584 28.30560 8012 ft 168 kts 277°
2026-05-07 15:23 29.45648 28.29219 8011 ft 168 kts 277°
2026-05-07 15:24 29.45708 28.27881 8010 ft 168 kts 278°
2026-05-07 15:24 29.45772 28.26540 8015 ft 168 kts 277°
2026-05-07 15:24 29.45833 28.25223 8015 ft 168 kts 277°
2026-05-07 15:24 29.45895 28.23881 8014 ft 168 kts 277°
2026-05-07 15:25 29.45957 28.22538 8014 ft 169 kts 277°
2026-05-07 15:25 29.46020 28.21189 8014 ft 169 kts 277°
2026-05-07 15:25 29.46080 28.19842 8014 ft 169 kts 277°
2026-05-07 15:25 29.46143 28.18491 8014 ft 169 kts 277°
2026-05-07 15:26 29.46205 28.17144 8015 ft 169 kts 277°
2026-05-07 15:26 29.46267 28.15801 8013 ft 169 kts 277°
2026-05-07 15:26 29.46328 28.14470 8014 ft 169 kts 277°
2026-05-07 15:26 29.46389 28.13122 8013 ft 169 kts 277°
2026-05-07 15:27 29.46449 28.11778 8014 ft 169 kts 277°
2026-05-07 15:27 29.46510 28.10435 8016 ft 168 kts 277°
2026-05-07 15:27 29.46572 28.09089 8015 ft 169 kts 277°
2026-05-07 15:27 29.46633 28.07738 8015 ft 169 kts 277°
2026-05-07 15:28 29.46693 28.06390 8016 ft 169 kts 277°
2026-05-07 15:28 29.46754 28.05041 8011 ft 170 kts 278°
2026-05-07 15:28 29.46815 28.03690 8013 ft 169 kts 277°
2026-05-07 15:28 29.46875 28.02355 8012 ft 169 kts 277°
2026-05-07 15:29 29.46936 28.01004 8011 ft 170 kts 277°
2026-05-07 15:29 29.46996 27.99647 8010 ft 169 kts 277°
2026-05-07 15:29 29.47056 27.98294 8011 ft 169 kts 277°
2026-05-07 15:29 29.47115 27.96949 8009 ft 169 kts 277°
2026-05-07 15:30 29.47174 27.95600 8009 ft 169 kts 277°
2026-05-07 15:30 29.47234 27.94265 8009 ft 169 kts 277°
2026-05-07 15:30 29.47293 27.92922 8010 ft 169 kts 277°
2026-05-07 15:30 29.47352 27.91572 8009 ft 169 kts 277°
2026-05-07 15:31 29.47411 27.90223 8008 ft 169 kts 277°
2026-05-07 15:31 29.47470 27.88877 8013 ft 169 kts 277°
2026-05-07 15:31 29.47529 27.87530 8011 ft 169 kts 277°
2026-05-07 15:31 29.47587 27.86199 8013 ft 169 kts 277°
2026-05-07 15:32 29.47645 27.84847 8013 ft 169 kts 277°
2026-05-07 15:32 29.47701 27.83499 8010 ft 169 kts 277°
2026-05-07 15:32 29.47760 27.82150 8009 ft 169 kts 277°
2026-05-07 15:32 29.47818 27.80797 8007 ft 170 kts 277°
2026-05-07 15:33 29.47877 27.79442 8005 ft 170 kts 277°
2026-05-07 15:33 29.47935 27.78105 8011 ft 170 kts 277°
2026-05-07 15:33 29.47993 27.76747 8011 ft 170 kts 277°
2026-05-07 15:33 29.48051 27.75390 8010 ft 170 kts 277°
2026-05-07 15:34 29.48108 27.74037 8009 ft 170 kts 277°
2026-05-07 15:34 29.48166 27.72682 8011 ft 170 kts 277°
2026-05-07 15:34 29.48224 27.71320 8011 ft 170 kts 277°
2026-05-07 15:34 29.48282 27.69966 8010 ft 170 kts 277°
2026-05-07 15:35 29.48339 27.68616 8009 ft 169 kts 276°
2026-05-07 15:35 29.48395 27.67282 8011 ft 169 kts 277°
2026-05-07 15:35 29.48450 27.65932 8010 ft 170 kts 276°
2026-05-07 15:35 29.48507 27.64580 8007 ft 169 kts 277°
2026-05-07 15:36 29.48564 27.63232 8013 ft 169 kts 277°
2026-05-07 15:36 29.48621 27.61883 8016 ft 169 kts 277°
2026-05-07 15:36 29.48677 27.60533 8016 ft 169 kts 277°
2026-05-07 15:36 29.48732 27.59180 8014 ft 170 kts 276°
2026-05-07 15:37 29.48789 27.57829 8017 ft 170 kts 277°
2026-05-07 15:37 29.48845 27.56473 8010 ft 170 kts 277°
2026-05-07 15:37 29.48901 27.55117 8014 ft 170 kts 277°
2026-05-07 15:37 29.48956 27.53761 8013 ft 170 kts 277°
2026-05-07 15:38 29.49013 27.52403 8012 ft 170 kts 277°
2026-05-07 15:38 29.49068 27.51042 8012 ft 170 kts 276°
2026-05-07 15:38 29.49123 27.49688 8010 ft 170 kts 277°
2026-05-07 15:38 29.49177 27.48350 8010 ft 169 kts 277°
2026-05-07 15:39 29.49232 27.47000 8011 ft 169 kts 276°
2026-05-07 15:39 29.49287 27.45647 8010 ft 169 kts 276°
2026-05-07 15:39 29.49342 27.44295 8013 ft 170 kts 277°
2026-05-07 15:39 29.49397 27.42939 8013 ft 170 kts 276°
2026-05-07 15:40 29.49450 27.41601 8013 ft 170 kts 276°
2026-05-07 15:40 29.49505 27.40246 8014 ft 170 kts 276°
2026-05-07 15:40 29.49559 27.38892 8015 ft 170 kts 276°
2026-05-07 15:40 29.49612 27.37537 8012 ft 170 kts 277°
2026-05-07 15:41 29.49667 27.36177 8013 ft 170 kts 276°
2026-05-07 15:41 29.49720 27.34823 8016 ft 170 kts 276°
2026-05-07 15:41 29.49774 27.33468 8014 ft 170 kts 276°
2026-05-07 15:41 29.49828 27.32112 8014 ft 170 kts 276°
2026-05-07 15:42 29.49881 27.30754 8015 ft 170 kts 276°
2026-05-07 15:42 29.49935 27.29395 8014 ft 170 kts 276°
2026-05-07 15:42 29.49987 27.28038 8013 ft 170 kts 276°
2026-05-07 15:42 29.50041 27.26679 8015 ft 170 kts 276°
2026-05-07 15:43 29.50093 27.25339 8015 ft 170 kts 276°
2026-05-07 15:43 29.50146 27.23977 8015 ft 171 kts 276°
2026-05-07 15:43 29.50199 27.22615 8016 ft 171 kts 276°
2026-05-07 15:43 29.50251 27.21253 8014 ft 171 kts 276°
2026-05-07 15:44 29.50304 27.19889 8015 ft 170 kts 276°
2026-05-07 15:44 29.50357 27.18531 8013 ft 170 kts 276°
2026-05-07 15:44 29.50408 27.17175 8013 ft 170 kts 276°
2026-05-07 15:44 29.50460 27.15826 8013 ft 169 kts 276°
2026-05-07 15:45 29.50512 27.14474 8014 ft 170 kts 276°
2026-05-07 15:45 29.50562 27.13124 8016 ft 169 kts 276°
2026-05-07 15:45 29.50613 27.11791 8015 ft 169 kts 276°
2026-05-07 15:45 29.50664 27.10438 8017 ft 169 kts 276°
2026-05-07 15:46 29.50766 27.07741 8016 ft 169 kts 276°
2026-05-07 15:46 29.50817 27.06392 8016 ft 169 kts 276°
2026-05-07 15:46 29.50866 27.05063 8014 ft 169 kts 276°
2026-05-07 15:47 29.50917 27.03712 8015 ft 169 kts 276°
2026-05-07 15:47 29.50967 27.02366 8015 ft 169 kts 276°
2026-05-07 15:47 29.51017 27.01019 8020 ft 169 kts 276°
2026-05-07 15:47 29.51067 26.99669 8021 ft 169 kts 276°
2026-05-07 15:48 29.51117 26.98313 8016 ft 169 kts 276°
2026-05-07 15:48 29.51167 26.96960 8015 ft 169 kts 276°
2026-05-07 15:48 29.51217 26.95608 8019 ft 170 kts 276°
2026-05-07 15:48 29.51267 26.94250 8015 ft 170 kts 276°
2026-05-07 15:49 29.51316 26.92897 8016 ft 169 kts 276°
2026-05-07 15:49 29.51364 26.91562 8019 ft 170 kts 276°
2026-05-07 15:49 29.51414 26.90207 8019 ft 170 kts 276°
2026-05-07 15:49 29.51463 26.88853 8019 ft 170 kts 276°
2026-05-07 15:50 29.51512 26.87497 8019 ft 169 kts 276°
2026-05-07 15:50 29.51561 26.86144 8018 ft 169 kts 276°
2026-05-07 15:50 29.51609 26.84794 8018 ft 169 kts 276°
2026-05-07 15:50 29.51657 26.83447 8019 ft 169 kts 276°
2026-05-07 15:51 29.51706 26.82095 8018 ft 169 kts 276°
2026-05-07 15:51 29.51754 26.80742 8021 ft 169 kts 276°
2026-05-07 15:51 29.51802 26.79390 8024 ft 170 kts 276°
2026-05-07 15:51 29.51850 26.78036 8020 ft 170 kts 276°
2026-05-07 15:52 29.51897 26.76684 8019 ft 169 kts 276°
2026-05-07 15:52 29.51945 26.75333 8018 ft 170 kts 276°
2026-05-07 15:52 29.51992 26.73996 8021 ft 169 kts 276°
2026-05-07 15:52 29.52040 26.72641 8025 ft 169 kts 276°
2026-05-07 15:53 29.52087 26.71291 8021 ft 169 kts 276°
2026-05-07 15:53 29.52134 26.69939 8021 ft 169 kts 276°
2026-05-07 15:53 29.52181 26.68587 8022 ft 169 kts 276°
2026-05-07 15:53 29.52227 26.67238 8022 ft 169 kts 276°
2026-05-07 15:54 29.52274 26.65884 8020 ft 169 kts 276°
2026-05-07 15:54 29.52321 26.64534 8027 ft 169 kts 276°
2026-05-07 15:54 29.52367 26.63180 8023 ft 170 kts 276°
2026-05-07 15:54 29.52413 26.61828 8024 ft 169 kts 276°
2026-05-07 15:55 29.52459 26.60476 8023 ft 170 kts 276°
2026-05-07 15:55 29.52506 26.59121 8020 ft 170 kts 276°
2026-05-07 15:55 29.52551 26.57784 8023 ft 170 kts 276°
2026-05-07 15:55 29.52597 26.56423 8020 ft 171 kts 276°
2026-05-07 15:56 29.52642 26.55062 8028 ft 170 kts 276°
2026-05-07 15:56 29.52689 26.53703 8025 ft 170 kts 276°
2026-05-07 15:56 29.52734 26.52342 8025 ft 170 kts 276°
2026-05-07 15:56 29.52779 26.50983 8026 ft 170 kts 276°
2026-05-07 15:57 29.52809 26.50087 8030 ft 170 kts 276°
2026-05-07 15:57 29.52854 26.48733 8028 ft 169 kts 276°
2026-05-07 15:57 29.52898 26.47383 8028 ft 169 kts 276°
2026-05-07 15:57 29.52942 26.46035 8030 ft 169 kts 276°
2026-05-07 15:58 29.52987 26.44688 8032 ft 169 kts 276°
2026-05-07 15:58 29.53032 26.43338 8027 ft 169 kts 276°
2026-05-07 15:58 29.53076 26.41992 8030 ft 169 kts 276°
2026-05-07 15:58 29.53120 26.40643 8028 ft 169 kts 276°
2026-05-07 15:59 29.53164 26.39290 8030 ft 169 kts 276°
2026-05-07 15:59 29.53207 26.37940 8029 ft 169 kts 276°
2026-05-07 15:59 29.53251 26.36590 8030 ft 169 kts 276°
2026-05-07 15:59 29.53294 26.35243 8032 ft 168 kts 276°
2026-05-07 16:00 29.53338 26.33899 8032 ft 169 kts 276°
2026-05-07 16:00 29.53381 26.32553 8032 ft 169 kts 276°
2026-05-07 16:00 29.53424 26.31206 8032 ft 169 kts 276°
2026-05-07 16:00 29.53467 26.29859 8032 ft 169 kts 276°
2026-05-07 16:01 29.53509 26.28508 8031 ft 170 kts 276°
2026-05-07 16:01 29.53552 26.27157 8018 ft 170 kts 275°
2026-05-07 16:01 29.53594 26.25818 8030 ft 170 kts 276°
2026-05-07 16:01 29.53637 26.24461 8030 ft 170 kts 276°
2026-05-07 16:02 29.53680 26.23105 8027 ft 170 kts 276°
2026-05-07 16:02 29.53722 26.21745 8038 ft 170 kts 276°
2026-05-07 16:02 29.53764 26.20383 8020 ft 172 kts 276°
2026-05-07 16:02 29.53809 26.18984 7869 ft 179 kts 276°
2026-05-07 16:03 29.53856 26.17534 7731 ft 184 kts 275°
2026-05-07 16:03 29.53900 26.16076 7592 ft 185 kts 275°
2026-05-07 16:03 29.53945 26.14593 7451 ft 185 kts 275°
2026-05-07 16:03 29.53989 26.13116 7304 ft 184 kts 275°
2026-05-07 16:04 29.54033 26.11650 7163 ft 183 kts 275°
2026-05-07 16:04 29.54077 26.10189 7022 ft 183 kts 275°
2026-05-07 16:04 29.54121 26.08736 6884 ft 182 kts 275°
2026-05-07 16:04 29.54164 26.07298 6743 ft 182 kts 275°
2026-05-07 16:05 29.54209 26.05833 6598 ft 181 kts 275°
2026-05-07 16:05 29.54252 26.04405 6458 ft 181 kts 275°
2026-05-07 16:05 29.54294 26.02961 6312 ft 181 kts 275°
2026-05-07 16:05 29.54338 26.01518 6159 ft 181 kts 275°
2026-05-07 16:06 29.54380 26.00069 6011 ft 181 kts 275°
2026-05-07 16:06 29.54422 25.98627 5856 ft 181 kts 275°
2026-05-07 16:06 29.54464 25.97181 5710 ft 181 kts 275°
2026-05-07 16:06 29.54506 25.95734 5562 ft 181 kts 275°
2026-05-07 16:07 29.54549 25.94294 5417 ft 181 kts 275°
2026-05-07 16:07 29.54591 25.92848 5268 ft 181 kts 275°
2026-05-07 16:07 29.54632 25.91415 5123 ft 179 kts 275°
2026-05-07 16:07 29.54672 25.89987 4981 ft 180 kts 275°
2026-05-07 16:08 29.54715 25.88545 4833 ft 181 kts 275°
2026-05-07 16:08 29.54756 25.87119 4680 ft 180 kts 275°
2026-05-07 16:08 29.54797 25.85685 4530 ft 179 kts 275°
2026-05-07 16:08 29.54835 25.84257 4374 ft 179 kts 275°
2026-05-07 16:09 29.54876 25.82839 4223 ft 177 kts 275°
2026-05-07 16:09 29.54916 25.81431 4078 ft 176 kts 275°
2026-05-07 16:09 29.54955 25.80022 3929 ft 176 kts 275°
2026-05-07 16:09 29.54995 25.78616 3776 ft 176 kts 274°
2026-05-07 16:10 29.55034 25.77211 3626 ft 176 kts 274°
2026-05-07 16:10 29.55073 25.75807 3486 ft 176 kts 275°
2026-05-07 16:10 29.55113 25.74401 3336 ft 175 kts 275°
2026-05-07 16:10 29.55150 25.73021 3185 ft 175 kts 274°
2026-05-07 16:11 29.55189 25.71615 3043 ft 176 kts 274°
2026-05-07 16:11 29.55225 25.70213 2895 ft 175 kts 275°
2026-05-07 16:11 29.55264 25.68806 2746 ft 176 kts 274°
2026-05-07 16:11 29.55303 25.67396 2602 ft 176 kts 274°
2026-05-07 16:12 29.55393 25.65997 2443 ft 175 kts 287°
2026-05-07 16:12 29.55867 25.64722 2302 ft 173 kts 297°
2026-05-07 16:12 29.56299 25.63449 2147 ft 173 kts 294°
2026-05-07 16:12 29.56741 25.62150 2013 ft 172 kts 294°
2026-05-07 16:13 29.57174 25.60885 1863 ft 173 kts 294°
2026-05-07 16:13 29.57575 25.59623 1705 ft 163 kts 292°
2026-05-07 16:13 29.57922 25.58455 1598 ft 144 kts 292°
2026-05-07 16:13 29.58210 25.57447 1496 ft 125 kts 292°
2026-05-07 16:14 29.58479 25.56500 1347 ft 124 kts 292°
2026-05-07 16:14 29.58737 25.55557 1191 ft 122 kts 288°
2026-05-07 16:14 29.58790 25.54631 1148 ft 118 kts 249°
2026-05-07 16:14 29.58165 25.54095 1050 ft 116 kts 181°
2026-05-07 16:15 29.57457 25.54384 1030 ft 106 kts 144°
2026-05-07 16:15 29.56901 25.54897 994 ft 104 kts 128°
2026-05-07 16:15 29.56483 25.55584 910 ft 104 kts 111°
2026-05-07 16:15 29.56232 25.56322 778 ft 96 kts 105°
2026-05-07 16:16 29.56004 25.57007 602 ft 89 kts 107°
2026-05-07 16:16 29.55803 25.57605 483 ft 68 kts 105°
2026-05-07 16:16 29.55673 25.57992 482 ft 37 kts 110°
2026-05-07 16:16 29.55601 25.58188 475 ft 17 kts 131°
2026-05-07 16:17 29.55521 25.58220 475 ft 10 kts 169°
2026-05-07 16:17 29.55464 25.58240 474 ft 7 kts 150°
2026-05-07 16:17 29.55436 25.58280 477 ft 6 kts 116°
2026-05-07 16:17 29.55415 25.58331 475 ft 9 kts 113°
2026-05-07 16:18 29.55394 25.58391 477 ft 8 kts 113°
2026-05-07 16:18 29.55338 25.58419 472 ft 10 kts 165°
2026-05-07 16:18 29.55319 25.58452 474 ft 2 kts 109°
2026-05-07 16:18 29.55316 25.58463 471 ft 0 kts 109°